Wind_Speed
22 21 21 20 19 18 17 16 15 14 13 12 11 10 10 9 8 8 8 7 7 6 6 6 7 9 10 11 12 11 10 9 10 11 12 13 14 15 16 17 18 19
23 23 21 20 19 19 18 17 16 14 13 12 12 11 11 11 10 10 9 9 9 8 8 8 8 10 11 12 13 13 13 12 12 12 13 14 15 16 17 18 19 20
25 23 22 21 20 20 18 17 16 15 14 14 13 13 12 12 11 11 11 11 11 10 10 10 10 11 11 12 13 14 14 14 14 14 14 15 16 17 19 19 20 21
25 24 23 22 21 20 19 17 16 16 16 15 15 14 13 13 13 13 14 14 13 12 11 11 12 12 11 12 12 14 15 15 16 16 17 17 18 19 20 21 22 23
26 25 24 23 23 21 19 18 18 18 17 16 15 15 15 15 15 15 15 15 15 14 13 12 12 12 12 12 13 14 16 17 18 19 20 20 21 21 22 23 24 25
28 26 26 25 24 22 21 20 20 19 18 18 17 17 18 17 17 17 16 16 15 15 14 13 12 12 13 13 14 15 17 18 19 21 22 23 24 25 26 26 27 28
29 28 28 27 25 24 23 22 22 21 21 20 20 20 20 19 19 18 18 16 16 15 15 14 14 14 14 15 16 16 18 19 21 23 24 26 27 28 29 29 29 30
31 31 30 28 27 25 24 24 23 23 22 22 22 22 21 21 20 20 19 17 17 16 16 16 16 16 16 16 17 19 20 22 24 25 27 29 30 31 32 32 32 33
34 33 31 29 28 26 25 24 23 22 22 22 22 22 22 22 22 21 20 19 19 18 18 17 17 18 18 18 20 22 24 25 27 28 30 32 33 33 34 34 34 35
35 33 31 30 28 26 25 25 24 23 23 23 23 22 23 23 23 23 22 21 21 21 20 20 19 20 20 21 22 24 27 28 30 31 33 34 35 35 35 36 36 36
37 35 33 30 29 27 27 26 26 25 25 24 23 23 23 24 24 25 24 24 23 23 23 23 22 22 24 25 26 27 29 31 33 34 35 36 37 37 37 37 37 38
39 37 34 32 30 29 29 29 28 28 27 26 25 24 24 25 25 26 26 27 26 26 26 26 26 26 27 29 29 30 32 33 35 37 38 38 39 38 38 38 39 40
41 39 37 35 33 32 32 31 30 29 29 29 28 27 26 26 27 28 28 29 29 29 29 29 29 30 31 32 32 33 34 35 37 39 40 41 41 40 40 41 42 43
42 40 39 38 36 35 34 33 31 30 30 31 31 30 30 29 29 30 30 31 31 32 32 32 32 33 33 33 34 35 36 37 39 41 42 43 42 42 43 44 45 46
42 42 41 40 39 38 36 34 32 31 31 32 32 33 32 32 32 31 32 32 33 34 34 34 34 35 35 35 36 37 38 40 41 42 43 44 44 45 46 47 48 50
43 43 43 42 41 39 37 35 34 33 34 34 34 34 34 34 34 33 33 34 35 36 36 36 36 36 37 37 38 39 40 42 43 43 44 45 46 47 48 49 51 53
45 44 44 43 42 40 38 37 36 36 37 37 36 35 35 35 35 35 35 35 36 37 37 37 37 38 38 39 39 40 42 44 45 45 45 47 48 49 51 52 53 54
45 44 44 43 42 41 39 38 38 38 39 38 37 36 36 36 36 36 36 36 37 37 38 38 38 39 39 39 40 41 43 45 47 47 48 49 50 52 53 54 54 54
45 45 45 44 43 42 40 39 40 40 40 38 37 37 36 36 36 37 38 38 38 38 39 39 39 39 40 40 41 42 43 46 48 49 51 52 53 53 54 53 52 50
47 46 46 46 44 43 41 41 41 41 40 38 37 37 37 37 37 37 39 39 39 39 40 40 40 40 41 42 42 43 44 46 49 51 53 54 54 53 52 49 47 44
49 48 48 47 45 44 42 42 41 40 39 38 38 38 38 38 38 38 39 40 41 41 41 41 41 42 42 43 43 44 46 48 50 52 53 53 52 49 46 43 41 41
49 48 47 46 45 43 42 42 41 41 40 39 39 39 39 39 39 40 40 41 42 43 42 42 42 43 44 45 45 47 49 50 51 51 50 48 45 42 40 39 39 40
47 46 46 45 44 43 43 42 42 41 40 40 40 40 40 40 41 41 41 42 42 43 44 44 44 45 46 47 48 49 50 50 48 46 43 41 38 36 37 38 38 39
47 46 45 45 45 44 43 43 42 42 41 41 41 41 41 41 41 42 42 43 43 44 45 46 47 48 49 50 50 50 49 46 43 40 37 35 33 34 36 38 39 39
47 46 46 45 45 45 44 43 43 42 42 41 42 42 42 42 42 43 43 44 45 46 47 48 49 50 50 50 48 45 42 39 37 36 35 34 33 35 36 38 39 40
46 46 46 45 45 45 44 44 43 43 43 42 42 42 43 43 44 44 45 46 47 48 49 49 49 48 46 44 41 38 36 34 34 35 35 35 35 36 37 38 39 40
Wind_Direction
188 188 188 187 186 188 189 190 191 191 191 192 195 201 204 207 209 213 219 225 234 245 257 276 294 306 313 316 317 317 320 325 330 335 336 336 336 336 336 336 336 337
189 190 189 188 189 191 193 194 194 195 197 200 205 211 214 218 219 222 226 233 242 252 261 271 282 293 301 307 310 312 316 322 327 332 334 333 333 332 332 332 332 332
192 192 192 192 195 197 199 199 200 202 204 207 213 219 224 228 231 233 236 238 243 250 259 267 276 284 292 299 304 308 313 318 323 326 328 329 330 330 330 329 328 328
195 196 196 198 201 203 204 205 207 210 212 214 219 225 230 236 239 242 243 244 246 250 257 266 273 280 286 294 301 306 311 315 319 322 323 324 325 326 325 324 324 324
198 200 202 204 207 209 209 212 216 219 222 225 229 233 237 241 244 247 249 251 253 255 259 264 271 279 286 293 300 304 308 313 316 318 320 321 321 321 321 320 321 321
201 203 207 209 211 213 214 218 222 227 230 233 236 239 241 245 249 252 254 255 258 261 263 265 269 278 285 291 297 302 307 311 314 316 318 319 319 319 319 319 319 319
205 208 211 213 216 218 221 225 229 233 236 238 240 242 244 248 252 256 258 258 259 262 264 267 270 275 282 289 295 301 305 308 312 315 316 318 318 319 319 319 319 318
208 211 214 217 220 223 226 230 234 236 239 241 243 246 249 251 255 258 260 259 259 260 263 267 271 274 280 289 295 300 303 306 309 312 315 317 318 319 319 319 319 318
212 214 217 220 224 226 229 233 235 238 242 245 248 251 253 256 258 261 260 260 261 263 266 268 272 277 282 288 293 298 301 305 308 311 314 316 317 318 318 318 318 317
215 218 220 223 227 229 231 233 235 239 243 247 251 254 256 258 260 262 261 260 261 265 269 272 275 281 285 288 291 296 300 305 309 312 314 315 315 316 315 316 316 316
218 220 222 225 228 229 230 232 236 240 243 247 251 255 259 261 262 263 262 261 261 264 269 274 278 281 284 287 291 296 301 306 309 311 312 313 313 314 313 313 313 313
220 221 223 226 228 228 230 234 239 242 244 249 254 259 263 265 265 265 263 262 263 265 269 274 278 280 283 287 292 297 302 305 308 309 310 311 311 311 311 311 311 311
222 223 224 226 227 227 231 236 240 243 247 252 257 262 265 266 266 266 264 264 265 267 269 273 276 278 282 287 293 298 301 303 305 307 308 309 310 309 309 309 309 309
223 224 225 226 227 228 232 237 241 245 249 254 258 262 265 265 265 266 265 265 266 268 269 271 273 277 282 288 293 296 298 301 303 305 306 307 308 308 308 308 309 309
224 224 225 226 228 230 233 238 243 247 251 254 258 261 264 264 264 264 265 265 266 267 269 271 274 279 284 288 291 294 297 300 302 303 304 305 306 307 307 308 308 308
225 225 225 226 229 231 235 240 245 250 253 255 257 261 263 264 263 263 264 266 267 268 270 273 277 281 284 288 291 294 297 298 299 301 302 304 304 305 306 306 307 307
226 226 227 228 231 234 238 242 248 252 254 256 258 261 263 263 263 264 267 269 270 271 273 276 279 281 285 288 292 295 296 297 298 300 301 302 303 303 304 305 305 306
227 227 229 231 233 236 240 245 249 252 254 257 260 262 263 264 265 267 269 271 272 274 275 277 279 282 286 289 291 293 295 296 298 300 301 301 301 302 303 304 305 305
228 229 231 233 236 239 243 246 249 252 255 258 261 263 264 265 267 269 271 272 273 275 277 279 281 283 286 288 290 292 294 296 297 298 299 299 300 301 303 304 304 305
230 232 234 236 239 241 244 246 249 252 256 259 262 263 265 266 267 269 271 273 274 276 277 280 282 284 285 287 290 292 293 295 296 297 297 298 300 302 303 304 305 307
232 234 237 240 242 243 245 247 249 252 255 259 261 263 264 266 267 269 271 274 275 277 278 280 282 284 286 288 290 291 292 293 294 295 296 298 300 302 304 306 308 310
235 237 240 242 244 245 246 247 250 253 255 257 260 262 264 266 268 270 271 273 276 278 280 281 283 284 286 288 289 290 291 292 293 294 295 298 301 304 306 307 309 312
237 238 240 242 244 245 246 249 251 253 255 258 260 262 265 267 269 271 272 273 275 278 280 282 283 284 286 287 288 289 290 291 292 293 294 297 301 305 307 309 310 312
238 239 240 242 244 246 248 250 252 254 256 259 260 263 265 267 269 270 272 274 276 278 280 282 283 284 286 287 288 290 291 292 293 294 295 299 304 307 308 310 311 312
239 240 242 243 245 248 249 251 253 255 257 259 260 262 265 266 269 270 272 274 276 277 279 281 283 284 286 288 290 291 293 295 297 299 301 304 307 308 308 307 308 309
240 241 243 245 247 249 251 253 255 256 258 259 261 263 265 267 268 270 271 273 275 277 279 281 283 285 286 287 289 292 295 298 300 301 302 305 306 305 304 304 305 307
Height
11002 11003 11005 11007 11008 11010 11011 11013 11014 11016 11017 11018 11019 11020 11021 11021 11022 11022 11023 11023 11023 11023 11023 11023 11023 11022 11022 11021 11021 11020 11020 11020 11019 11019 11018 11017 11017 11016 11015 11014 11013 11012
11000 11002 11003 11005 11007 11008 11010 11011 11013 11014 11016 11017 11017 11018 11019 11020 11021 11022 11022 11022 11022 11022 11022 11022 11022 11021 11021 11020 11020 11019 11019 11019 11019 11018 11017 11017 11016 11015 11014 11013 11012 11011
10998 11000 11002 11004 11005 11007 11008 11010 11012 11013 11014 11015 11016 11017 11018 11019 11020 11020 11021 11021 11021 11021 11021 11020 11020 11020 11020 11019 11019 11018 11018 11018 11017 11017 11016 11016 11015 11014 11014 11013 11012 11011
10996 10999 11001 11002 11004 11005 11007 11009 11010 11011 11013 11014 11015 11016 11017 11017 11018 11018 11019 11019 11019 11020 11020 11019 11019 11019 11019 11019 11018 11018 11017 11016 11016 11015 11015 11014 11014 11013 11012 11011 11010 11009
10995 10997 10999 11001 11002 11004 11006 11007 11008 11010 11011 11013 11014 11015 11015 11016 11016 11017 11017 11017 11018 11018 11018 11018 11018 11018 11018 11018 11017 11017 11016 11015 11014 11014 11013 11013 11012 11012 11011 11010 11009 11007
10992 10994 10996 10998 11000 11002 11004 11005 11007 11008 11010 11011 11012 11013 11013 11014 11014 11015 11015 11016 11016 11017 11017 11017 11017 11017 11017 11016 11016 11015 11014 11014 11013 11012 11011 11011 11010 11009 11009 11008 11006 11005
10990 10992 10993 10996 10998 11000 11002 11004 11006 11007 11008 11010 11010 11011 11011 11012 11013 11013 11014 11014 11014 11015 11015 11015 11015 11015 11015 11015 11014 11013 11013 11012 11011 11010 11009 11008 11008 11007 11006 11005 11004 11003
10988 10989 10990 10993 10995 10998 11000 11002 11004 11005 11006 11007 11008 11009 11009 11010 11011 11011 11012 11012 11012 11013 11013 11013 11013 11013 11013 11013 11012 11011 11010 11010 11009 11008 11007 11006 11005 11004 11003 11002 11001 11000
10985 10986 10988 10991 10993 10996 10998 11000 11001 11002 11003 11004 11005 11006 11007 11008 11009 11009 11010 11010 11010 11010 11011 11011 11011 11011 11011 11011 11010 11009 11008 11007 11007 11006 11005 11004 11003 11002 11000 10999 10998 10997
10983 10985 10987 10989 10991 10994 10995 10997 10998 10999 11001 11002 11003 11004 11005 11006 11006 11007 11007 11008 11008 11008 11008 11009 11009 11008 11008 11008 11008 11007 11005 11005 11004 11003 11003 11001 11000 10999 10997 10996 10995 10993
10980 10982 10984 10986 10989 10991 10992 10994 10995 10996 10998 10999 11000 11002 11002 11003 11004 11004 11005 11005 11006 11006 11006 11006 11006 11006 11005 11005 11005 11004 11003 11002 11001 11000 11000 10999 10997 10996 10994 10993 10991 10990
10977 10979 10982 10984 10986 10988 10989 10990 10992 10993 10995 10996 10998 10999 11000 11001 11001 11001 11002 11002 11003 11004 11004 11003 11003 11003 11003 11002 11002 11002 11001 11000 10998 10997 10996 10995 10994 10992 10991 10990 10988 10987
10974 10977 10979 10981 10983 10985 10986 10987 10989 10991 10992 10994 10995 10996 10997 10998 10998 10998 10999 10999 10999 11000 11000 11000 11000 11000 10999 10999 10999 10998 10998 10997 10995 10994 10992 10991 10990 10989 10988 10986 10984 10983
10971 10974 10976 10978 10980 10981 10983 10984 10986 10988 10990 10991 10992 10993 10994 10995 10995 10995 10996 10996 10996 10996 10997 10997 10997 10996 10996 10996 10996 10995 10994 10993 10992 10990 10989 10987 10986 10985 10984 10982 10980 10978
10968 10970 10972 10974 10976 10977 10980 10982 10983 10985 10987 10988 10989 10989 10990 10991 10992 10992 10992 10992 10992 10993 10993 10993 10993 10993 10994 10993 10993 10992 10990 10990 10988 10987 10985 10983 10982 10980 10979 10977 10975 10974
10964 10966 10968 10970 10972 10974 10977 10979 10980 10982 10983 10984 10985 10986 10987 10987 10988 10988 10989 10989 10989 10989 10989 10990 10990 10990 10990 10990 10989 10988 10986 10985 10984 10983 10981 10979 10977 10976 10975 10973 10971 10969
10960 10962 10964 10967 10969 10972 10974 10976 10977 10978 10978 10980 10982 10983 10984 10983 10983 10984 10985 10985 10985 10986 10986 10987 10987 10987 10987 10986 10986 10984 10982 10980 10978 10978 10977 10976 10974 10972 10971 10969 10967 10964
10957 10960 10961 10963 10966 10969 10971 10973 10974 10973 10974 10976 10978 10980 10980 10980 10980 10981 10981 10981 10981 10982 10982 10983 10983 10984 10983 10983 10982 10980 10978 10975 10974 10973 10973 10971 10970 10968 10966 10965 10962 10960
10954 10956 10958 10960 10963 10966 10968 10969 10969 10969 10971 10973 10975 10975 10976 10976 10977 10977 10977 10977 10978 10978 10978 10979 10980 10980 10979 10979 10978 10977 10975 10972 10970 10969 10968 10967 10966 10964 10962 10960 10958 10955
10951 10952 10954 10957 10959 10962 10964 10965 10965 10966 10969 10970 10971 10971 10971 10972 10973 10973 10972 10973 10974 10974 10975 10975 10975 10975 10975 10974 10974 10974 10972 10970 10967 10965 10962 10961 10961 10960 10958 10956 10953 10951
10947 10949 10951 10953 10956 10959 10960 10961 10962 10964 10966 10967 10967 10967 10967 10968 10969 10970 10969 10969 10968 10969 10970 10971 10971 10970 10970 10970 10970 10970 10969 10967 10964 10961 10958 10956 10956 10955 10953 10951 10949 10947
10944 10946 10948 10950 10953 10955 10956 10957 10959 10960 10962 10963 10963 10963 10963 10964 10965 10965 10966 10965 10964 10963 10964 10965 10966 10965 10965 10965 10965 10965 10964 10962 10960 10958 10955 10953 10952 10951 10949 10946 10945 10943
10940 10943 10945 10947 10948 10950 10952 10953 10954 10956 10957 10959 10959 10959 10959 10960 10960 10960 10961 10960 10959 10959 10959 10959 10960 10960 10960 10959 10959 10959 10958 10957 10956 10954 10952 10950 10949 10948 10945 10943 10941 10940
10936 10939 10941 10943 10944 10945 10947 10949 10950 10952 10953 10954 10955 10955 10955 10955 10955 10955 10955 10955 10955 10955 10954 10954 10954 10954 10953 10953 10953 10953 10952 10951 10950 10949 10947 10947 10946 10944 10941 10939 10937 10936
10932 10934 10936 10938 10939 10941 10943 10944 10946 10947 10948 10949 10950 10950 10950 10950 10950 10950 10950 10950 10950 10950 10949 10949 10948 10948 10948 10947 10946 10946 10945 10945 10944 10942 10941 10941 10941 10939 10937 10935 10933 10932
10926 10929 10931 10933 10934 10936 10938 10940 10941 10942 10943 10944 10945 10945 10945 10945 10945 10945 10945 10945 10945 10944 10944 10943 10943 10942 10942 10942 10941 10941 10941 10940 10939 10937 10937 10937 10936 10934 10933 10931 10930 10929